Weather History for EGQK - December, 2012

Change the Weather History Date:

Sunday, December 9, 2012

  Actual Average Record
Temperature  
Mean Temperature 41 °F -  
Max Temperature 43 °F 44 °F 55 °F (2013)
Min Temperature 39 °F 33 °F 19 °F (2003)
Degree Days  
Heating Degree Days 24    
Moisture  
Dew Point 35 °F    
Average Humidity 76    
Maximum Humidity 87    
Minimum Humidity 63    
Precipitation  
Precipitation 0.04 in 0.07 in - ()
Sea Level Pressure  
Sea Level Pressure 29.93 in    
Wind  
Wind Speed 21 mph ()    
Max Wind Speed 34 mph    
Max Gust Speed 41 mph    
Visibility 8.3 miles    
Events Rain    
Averages and records for this station are not official NWS values.
T = Trace of Precipitation, MM = Missing Value Source: Averaged Metar Reports

Daily Weather History Graph

Daily Weather History Graph

Search for Another Location

Airport or City:

Trip Planner

Search our weather history database for the weather conditions in past years. The results will help you decide how hot, cold, wet, or windy it might be!

Date:

Astronomy

Dec. 09, 2012 Rise Set
Actual Time 8:44 AM GMT 3:28 PM GMT
Civil Twilight 7:54 AM GMT 4:18 PM GMT
Nautical Twilight 7:03 AM GMT 5:10 PM GMT
Astronomical Twilight 6:15 AM GMT 5:57 PM GMT
Moon 3:14 AM GMT (12/9) 1:07 PM GMT (12/9)
Length of Visible Light 8h 24m
Length of Day
6h 43m
Waning Crescent, 20% of the Moon is Illuminated
Dec 9
Waning Crescent
Dec 13
New
Dec 20
First Quarter
Dec 28
Full
Jan 5
Last Quarter

Hourly Weather History & Observations

Time (GMT) Temp. Windchill Dew Point Humidity Pressure Visibility Wind Dir Wind Speed Gust Speed Precip Events Conditions
12:50 AM 41.0 °F 32.2 °F 33.8 °F 76% 29.80 in 6.2 mi WSW 18.4 mph - N/A   Mostly Cloudy
1:50 AM 41.0 °F 30.0 °F 35.6 °F 81% 29.77 in 6.2 mi West 28.8 mph 41.4 mph N/A Rain Light Rain Showers
2:50 AM 42 °F - 34 °F 63% 29.78 in 17 mi West 23.0 mph - - Rain Rain
2:50 AM 42.8 °F 33.5 °F 33.8 °F 70% 29.77 in 6.2 mi West 23.0 mph - N/A   Mostly Cloudy
3:50 AM 41.0 °F 29.1 °F 35.6 °F 81% 29.77 in 6.2 mi West 34.5 mph - N/A Rain Light Rain Showers
4:50 AM 42.8 °F 31.9 °F 35.6 °F 76% 29.77 in 6.2 mi West 32.2 mph - N/A Rain Light Rain
5:50 AM 42 °F - 36 °F 72% 29.77 in 15 mi WNW 28.8 mph - - Rain Light Rain Showers
5:50 AM 42.8 °F 32.5 °F 35.6 °F 76% 29.77 in 6.2 mi WNW 28.8 mph - N/A Rain Light Rain Showers
6:50 AM 42.8 °F 34.0 °F 35.6 °F 76% 29.77 in 6.2 mi WNW 20.7 mph - N/A   Scattered Clouds
7:50 AM 42.8 °F 33.3 °F 35.6 °F 76% 29.80 in 6.2 mi WNW 24.2 mph - N/A   Mostly Cloudy
8:50 AM 42 °F - 35 °F 70% 29.82 in 15 mi WNW 21.9 mph - - Rain Rain
8:50 AM 41.0 °F 31.4 °F 35.6 °F 81% 29.80 in 6.2 mi WNW 21.9 mph - N/A   Scattered Clouds
9:50 AM 42.8 °F 33.3 °F 35.6 °F 76% 29.83 in 6.2 mi WNW 24.2 mph - N/A   Mostly Cloudy
10:50 AM 42.8 °F 32.5 °F 35.6 °F 76% 29.86 in 6.2 mi NW 28.8 mph 40.3 mph N/A Rain Heavy Rain Showers
11:50 AM 43 °F - 35 °F 65% 29.90 in 14 mi NW 18.4 mph - - Rain Rain
11:50 AM 42.8 °F 34.5 °F 35.6 °F 76% 29.89 in 6.2 mi NW 18.4 mph - N/A   Scattered Clouds
12:50 PM 42.8 °F 34.5 °F 37.4 °F 81% 29.89 in 6.2 mi WNW 18.4 mph - N/A Rain Light Rain Showers
1:50 PM 41.0 °F 31.9 °F 37.4 °F 87% 29.92 in 6.2 mi NW 19.6 mph - N/A Rain Rain Showers
2:50 PM 41 °F - 36 °F 76% 29.97 in 16 mi NW 18.4 mph - - Rain Rain
2:50 PM 41.0 °F 32.2 °F 35.6 °F 81% 29.95 in 6.2 mi NW 18.4 mph - N/A   Unknown
3:50 PM 41.0 °F 32.5 °F 35.6 °F 81% 29.98 in 6.2 mi NW 17.3 mph - N/A   Unknown
4:50 PM 41.0 °F 32.8 °F 33.8 °F 76% 30.01 in 6.2 mi NW 16.1 mph - N/A   Scattered Clouds
5:50 PM 42 °F - 37 °F 78% 30.05 in 10 mi NNW 20.7 mph - - Rain Rain Showers
5:50 PM 41.0 °F 31.6 °F 37.4 °F 87% 30.04 in 6.2 mi NNW 20.7 mph - N/A Rain Rain Showers
6:50 PM 42.8 °F 33.8 °F 35.6 °F 76% 30.06 in 6.2 mi North 21.9 mph - N/A   Mostly Cloudy
7:50 PM 41.0 °F 31.6 °F 35.6 °F 81% 30.12 in 6.2 mi North 20.7 mph - N/A   Mostly Cloudy
8:50 PM 42 °F - 34 °F 64% 30.15 in 13 mi North 17.3 mph - -   Scattered Clouds
8:50 PM 42.8 °F 34.8 °F 33.8 °F 70% 30.12 in 6.2 mi North 17.3 mph - N/A   Mostly Cloudy
9:50 PM 41.0 °F 31.4 °F 32.0 °F 70% 30.15 in 6.2 mi North 21.9 mph - N/A   Mostly Cloudy
10:50 PM 39.2 °F 29.0 °F 33.8 °F 81% 30.18 in 6.2 mi North 21.9 mph - N/A   Mostly Cloudy
11:50 PM 40 °F - 32 °F 65% 30.22 in 18 mi North 16.1 mph - -   Scattered Clouds
11:50 PM 39.2 °F 30.5 °F 32.0 °F 75% 30.21 in 6.2 mi North 16.1 mph - N/A   Mostly Cloudy